User: anonymous   Login
Location: Unspecified
(0.0000°N, 0.0000°E)
Time: 17:23:22
(UTC+02:00)
Language:

Cosmos 1295 Rocket - Orbit

View from above orbital plane
View from above orbital plane
View from above satellite
View from above satellite

Ground track
Ground track

The orbit data is extracted from the following two-line orbital elements,

1 12682U 81077B   16271.99205209  .00000037  00000-0  21466-4 0  9998
2 12682  82.9187 212.2256 0034236   2.0209  50.9874 13.78522113766743
Epoch (UTC): 27 September 2016 23:48:33
Eccentricity: 0.0034236
inclination: 82.9187°
perigee height: 944 km
apogee height: 994 km
right ascension of ascending node: 212.2256°
argument of perigee: 2.0209°
revolutions per day: 13.78522113
mean anomaly at epoch: 50.9874°
orbit number at epoch: 76674

The dashed part of the orbit path shows where the satellite is in the earth's shadow,  

DLR